When you browse on this site, cookies collect data to enhance your experience and personalize the content and advertising you see.
Visit our Privacy Policy to learn more. By continuing to use the site, you agree to this use of cookies and data.
  • In Austria
  • List of Countries
  • For 7 days
  • Water Temperature
  • Satellite Maps
  • Weather Map
  • News
  • Weather Widgets
  • user-avatar
    Login

    Hourly Weather Stryszewo

    Today, 20 February, Wednesday

    Time Temperature Precipitation Wind Pressure Humidity
    00:00 +5°C° 0 mm 5 mps 759 mmHg 84%
    01:00 +3°C° 0 mm 5 mps 759 mmHg 86%
    02:00 +3°C° 0 mm 5 mps 759 mmHg 87%
    03:00 +3°C° 0 mm 5 mps 759 mmHg 89%
    04:00 +2°C° 0 mm 5 mps 759 mmHg 90%
    05:00 +3°C° 0 mm 5 mps 759 mmHg 88%
    06:00 +3°C° 0 mm 5 mps 760 mmHg 85%
    07:00 +3°C° 0 mm 5 mps 760 mmHg 83%
    08:00 +3°C° 0 mm 5 mps 760 mmHg 82%
    09:00 +5°C° 0 mm 5 mps 761 mmHg 80%
    10:00 +5°C° 0 mm 5 mps 761 mmHg 78%
    11:00 +5°C° 0 mm 5 mps 761 mmHg 76%
    12:00 +6°C° 0 mm 5 mps 762 mmHg 74%
    13:00 +6°C° 0 mm 5 mps 762 mmHg 72%
    14:00 +6°C° 0.1 mm 4 mps 762 mmHg 73%
    15:00 +6°C° 0.1 mm 4 mps 762 mmHg 73%
    16:00 +8°C° 0.1 mm 3 mps 763 mmHg 73%
    17:00 +7°C° 0 mm 3 mps 763 mmHg 76%
    18:00 +7°C° 0 mm 3 mps 763 mmHg 78%
    19:00 +7°C° 0 mm 3 mps 763 mmHg 81%
    20:00 +5°C° 0 mm 3 mps 763 mmHg 83%
    21:00 +5°C° 0 mm 3 mps 764 mmHg 85%
    22:00 +5°C° 0 mm 3 mps 764 mmHg 87%
    23:00 +5°C° 0 mm 3 mps 764 mmHg 88%

    Tomorrow, 21 February, Thursday

    Time Temperature Precipitation Wind Pressure Humidity
    00:00 +4°C° 0 mm 3 mps 764 mmHg 88%
    01:00 +4°C° 0 mm 3 mps 764 mmHg 88%
    02:00 +4°C° 0 mm 3 mps 764 mmHg 87%
    03:00 +4°C° 0 mm 3 mps 763 mmHg 85%
    04:00 +5°C° 0 mm 3 mps 763 mmHg 83%
    05:00 +5°C° 0.3 mm 4 mps 763 mmHg 84%
    06:00 +5°C° 0.3 mm 4 mps 763 mmHg 85%
    07:00 +5°C° 0.3 mm 5 mps 763 mmHg 85%
    08:00 +5°C° 0.8 mm 5 mps 763 mmHg 85%
    09:00 +5°C° 0.8 mm 5 mps 763 mmHg 85%
    10:00 +5°C° 0.8 mm 6 mps 763 mmHg 85%
    11:00 +5°C° 0.1 mm 6 mps 762 mmHg 83%
    12:00 +7°C° 0.1 mm 6 mps 762 mmHg 80%
    13:00 +8°C° 0.1 mm 6 mps 762 mmHg 77%
    14:00 +8°C° 0.5 mm 6 mps 762 mmHg 79%
    15:00 +8°C° 0.5 mm 6 mps 762 mmHg 81%
    16:00 +7°C° 0.5 mm 6 mps 762 mmHg 83%
    17:00 +7°C° 0.1 mm 6 mps 762 mmHg 85%
    18:00 +7°C° 0.1 mm 5 mps 762 mmHg 86%
    19:00 +7°C° 0.1 mm 5 mps 762 mmHg 87%
    20:00 +7°C° 0.1 mm 5 mps 763 mmHg 87%
    21:00 +7°C° 0.1 mm 5 mps 763 mmHg 88%
    22:00 +7°C° 0.1 mm 5 mps 763 mmHg 88%
    23:00 +7°C° 0.1 mm 5 mps 764 mmHg 86%

    Day after tomorrow, 22 February, Friday

    Time Temperature Precipitation Wind Pressure Humidity
    00:00 +7°C° 0.1 mm 5 mps 764 mmHg 85%
    01:00 +7°C° 0.1 mm 5 mps 765 mmHg 83%
    02:00 +6°C° 0 mm 5 mps 766 mmHg 83%
    03:00 +5°C° 0 mm 5 mps 766 mmHg 83%
    04:00 +3°C° 0 mm 5 mps 767 mmHg 83%
    05:00 +2°C° 0 mm 5 mps 768 mmHg 82%
    06:00 +1°C° 0 mm 4 mps 769 mmHg 80%
    07:00 0°C° 0 mm 4 mps 771 mmHg 78%
    08:00 0°C° 0 mm 4 mps 771 mmHg 71%
    09:00 0°C° 0 mm 4 mps 772 mmHg 65%
    10:00 0°C° 0 mm 4 mps 773 mmHg 59%
    11:00 0°C° 0 mm 4 mps 774 mmHg 55%
    12:00 +2°C° 0 mm 3 mps 774 mmHg 50%
    13:00 +3°C° 0 mm 3 mps 775 mmHg 45%
    14:00 +2°C° 0 mm 3 mps 775 mmHg 45%
    15:00 +2°C° 0 mm 3 mps 775 mmHg 45%
    16:00 +3°C° 0 mm 2 mps 775 mmHg 44%
    17:00 +2°C° 0 mm 2 mps 776 mmHg 49%
    18:00 +1°C° 0 mm 2 mps 776 mmHg 53%
    19:00 -1°C° 0 mm 2 mps 777 mmHg 58%
    20:00 -1°C° 0 mm 2 mps 777 mmHg 59%
    21:00 0°C° 0 mm 1 mps 777 mmHg 59%
    22:00 0°C° 0 mm 1 mps 777 mmHg 60%
    23:00 0°C° 0 mm 1 mps 778 mmHg 60%

    23 February, Saturday

    Time Temperature Precipitation Wind Pressure Humidity
    00:00 0°C° 0 mm 1 mps 778 mmHg 60%
    01:00 0°C° 0 mm 1 mps 778 mmHg 59%
    02:00 0°C° 0 mm 1 mps 778 mmHg 59%
    03:00 0°C° 0 mm 1 mps 777 mmHg 59%
    04:00 -1°C° 0 mm 0 mps 777 mmHg 58%
    05:00 0°C° 0 mm 1 mps 777 mmHg 58%
    06:00 0°C° 0 mm 1 mps 777 mmHg 57%
    07:00 0°C° 0 mm 1 mps 777 mmHg 56%
    08:00 +1°C° 0 mm 1 mps 777 mmHg 50%
    09:00 +2°C° 0 mm 1 mps 776 mmHg 44%
    10:00 +3°C° 0 mm 1 mps 776 mmHg 38%
    11:00 +4°C° 0 mm 1 mps 776 mmHg 36%
    12:00 +5°C° 0 mm 1 mps 776 mmHg 34%
    13:00 +5°C° 0 mm 1 mps 776 mmHg 32%
    14:00 +5°C° 0 mm 1 mps 775 mmHg 34%
    15:00 +6°C° 0 mm 1 mps 775 mmHg 37%
    16:00 +6°C° 0 mm 1 mps 774 mmHg 39%
    17:00 +4°C° 0 mm 1 mps 774 mmHg 43%
    18:00 +3°C° 0 mm 1 mps 774 mmHg 47%
    19:00 +2°C° 0 mm 1 mps 774 mmHg 52%
    20:00 +2°C° 0 mm 1 mps 774 mmHg 55%
    21:00 +2°C° 0 mm 1 mps 774 mmHg 57%
    22:00 +2°C° 0 mm 1 mps 774 mmHg 60%
    23:00 +2°C° 0 mm 1 mps 774 mmHg 63%

    24 February, Sunday

    Time Temperature Precipitation Wind Pressure Humidity
    00:00 +2°C° 0 mm 1 mps 774 mmHg 66%
    01:00 +2°C° 0 mm 1 mps 774 mmHg 68%
    02:00 +2°C° 0 mm 1 mps 774 mmHg 74%
    03:00 +2°C° 0 mm 1 mps 774 mmHg 81%
    04:00 +1°C° 0 mm 1 mps 774 mmHg 87%
    05:00 +1°C° 0 mm 1 mps 774 mmHg 90%
    06:00 +1°C° 0 mm 1 mps 774 mmHg 92%
    07:00 +1°C° 0 mm 1 mps 774 mmHg 95%
    08:00 +2°C° 0 mm 1 mps 774 mmHg 92%
    09:00 +3°C° 0 mm 1 mps 775 mmHg 90%
    10:00 +4°C° 0 mm 1 mps 775 mmHg 87%
    11:00 +5°C° 0 mm 1 mps 775 mmHg 84%
    12:00 +5°C° 0 mm 1 mps 775 mmHg 81%
    13:00 +6°C° 0 mm 1 mps 775 mmHg 78%
    14:00 +6°C° 0 mm 1 mps 775 mmHg 77%
    15:00 +6°C° 0 mm 1 mps 775 mmHg 76%
    16:00 +6°C° 0 mm 1 mps 775 mmHg 75%
    17:00 +5°C° 0 mm 1 mps 775 mmHg 80%
    18:00 +3°C° 0 mm 0 mps 775 mmHg 85%
    19:00 +2°C° 0 mm 0 mps 775 mmHg 90%
    20:00 +2°C° 0 mm 0 mps 775 mmHg 90%
    21:00 +2°C° 0 mm 0 mps 775 mmHg 91%
    22:00 +1°C° 0 mm 0 mps 776 mmHg 91%
    23:00 +1°C° 0 mm 0 mps 776 mmHg 92%

    25 February, Monday

    Time Temperature Precipitation Wind Pressure Humidity
    00:00 +2°C° 0 mm 0 mps 776 mmHg 92%
    01:00 +2°C° 0 mm 0 mps 776 mmHg 92%
    02:00 +2°C° 0 mm 0 mps 776 mmHg 92%
    03:00 +2°C° 0 mm 0 mps 776 mmHg 92%
    04:00 +2°C° 0 mm 0 mps 775 mmHg 92%
    05:00 +2°C° 0 mm 1 mps 775 mmHg 93%
    06:00 +2°C° 0 mm 1 mps 775 mmHg 93%
    07:00 +2°C° 0 mm 1 mps 775 mmHg 93%
    08:00 +3°C° 0 mm 1 mps 775 mmHg 89%
    09:00 +5°C° 0 mm 1 mps 776 mmHg 85%
    10:00 +5°C° 0 mm 2 mps 776 mmHg 80%
    11:00 +6°C° 0 mm 2 mps 776 mmHg 78%
    12:00 +7°C° 0 mm 2 mps 775 mmHg 75%
    13:00 +8°C° 0 mm 3 mps 775 mmHg 73%
    14:00 +7°C° 0 mm 3 mps 775 mmHg 75%
    15:00 +7°C° 0 mm 3 mps 775 mmHg 77%
    16:00 +7°C° 0 mm 2 mps 775 mmHg 80%
    17:00 +6°C° 0 mm 2 mps 775 mmHg 82%
    18:00 +6°C° 0 mm 2 mps 775 mmHg 84%
    19:00 +5°C° 0 mm 2 mps 775 mmHg 87%
    20:00 +5°C° 0 mm 2 mps 775 mmHg 89%
    21:00 +4°C° 0 mm 2 mps 775 mmHg 92%
    22:00 +3°C° 0 mm 2 mps 776 mmHg 94%
    23:00 +2°C° 0 mm 2 mps 776 mmHg 94%
    Show more